BREEZE-M DEB, 38603

Orbit data source: Space-Track

BREEZE-M DEB, 38603 is space debris in HEO originally from a launch on Fri, 14 Mar 2008 UTC launched from the Tyuratam Missile And Space Complex (TTMTR). Debris objects in space refer to the collection of defunct objects orbiting the Earth. Examples of debris include non-operational satellites, rocket bodies, and fragments generated from explosions, collisions, or faulty payload assembly.

Loading next visibility...
Identifier
38603, 2008-011BA
Orbit
HEO
Country
Flag of CISCIS
Related business
Manufacturer
Unknown
Mission
Spacecraft
Bus & Motor
Unknown
Mass
Unknown
Launch date (UTC)
2008-03-14 (18 years ago)
Launch vehicle
Unknown
Launch site
Tyuratam Missile And Space Complex (TTMTR)
Object type
Payload
Rocket body
Debris
Shape & HBR
Unknown shape, 0.1 m
Radar Cross Section
Medium (>0.1 m² and <1 m²)

Expand to show TLE details & history
Last TLE update: 9 months ago

TLE from 9 months ago
0 BREEZE-M DEB
1 38603U 08011BA  25266.58567823  .00022807  00000-0  24781-1 0  9997
2 38603  49.8192 294.9371 6456474 213.5565  80.2086  3.29727697 17018
Epoch: 2025-09-23T14:03Z
TLE epoch observation values (Epoch: 2025-09-23T14:03:22.599Z)
Latitude
-0.00001°
Longitude
81.41662°
Altitude
17,688.176 km
Speed
3.496 km/s
True Right ascension
19h 39m 44s
True Declination
0° 00' 00"
Sunlit
Object was in daylight at epoch
Visualization orbit readout
Latitude
Unknown
Longitude
Unknown
Altitude
Unknown
Speed
Unknown
Apparent Right ascension
Unknown
Apparent Declination
Unknown
Sunlit
N/A
Visualization observer readout
Local Sidereal Time
00:39:26
Azimuth
Unknown
Elevation
Unknown
Doppler factor
Unknown
Orbital elements
Apogee altitude
25,001.649 km
Perigee altitude
378.784 km
Semi-major axis
19,068.353 km
Eccentricity
0.64565
Inclination
49.8192°
RAAN
294.9371°
Arg. of periapsis
213.5565°
True anomaly
146.46153°
Mean anomaly
80.2086°
Eccentric anomaly
114.00259°
Mean motion
0.82428 °/min
Orbital period
436.75 mins
BSTAR
0.024781
Loading maneuver chart data...
Computing Atmospheric mass density...
Loading historical data...
Loading historical data...
Loading historical data...
Loading historical data...
Loading historical data...
Loading historical data...
Loading historical data...

Documentation

Showing up to 5 results
|